Arcata, CA

6:55 AM PDT on April 29, 2017 (GMT -0700)
Arcata

Weather History for KACV - May, 2013

Change the Weather History Date:

Saturday, May 4, 2013

  Actual Average Record
Temperature  
Mean Temperature 65 °F -  
Max Temperature 88 °F 56 °F 88 °F (2013)
Min Temperature 43 °F 41 °F 36 °F (2002)
Growing Degree Days 15 (Base 50)    
Moisture  
Dew Point 37 °F    
Average Humidity 45    
Maximum Humidity 97    
Minimum Humidity 12    
Precipitation  
Precipitation 0.00 in - - ()
Sea Level Pressure  
Sea Level Pressure 29.71 in    
Wind  
Wind Speed 6 mph (NNE)    
Max Wind Speed 22 mph    
Max Gust Speed 22 mph    
Visibility 10 miles    
Events      
Averages and records for this station are not official NWS values.
T = Trace of Precipitation, MM = Missing Value Source: NWS Daily Summary

Daily Weather History Graph

Daily Weather History Graph

Search for Another Location

Airport or City:

Trip Planner

Search our weather history database for the weather conditions in past years. The results will help you decide how hot, cold, wet, or windy it might be!

Date:

Astronomy

May. 04, 2013 Rise Set
Actual Time 6:10 AM PDT 8:16 PM PDT
Civil Twilight 5:40 AM PDT 8:46 PM PDT
Nautical Twilight 5:03 AM PDT 9:24 PM PDT
Astronomical Twilight 4:22 AM PDT 10:04 PM PDT
Moon 3:14 AM PDT (5/4) 3:18 PM PDT (5/4)
Length of Visible Light 15h 06m
Length of Day
14h 06m
Waning Crescent, 26% of the Moon is Illuminated
May 4
Waning Crescent
May 9
New
May 17
First Quarter
May 24
Full
May 31
Last Quarter

Hourly Weather History & Observations

Time (PDT) Temp. Windchill Dew Point Humidity Pressure Visibility Wind Dir Wind Speed Gust Speed Precip Events Conditions
12:53 AM 45.0 °F - 43.0 °F 93% 29.89 in 10.0 mi Calm Calm - N/A   Clear
1:53 AM 45.0 °F 43.5 °F 44.1 °F 97% 29.88 in 9.0 mi ENE 3.5 mph - N/A   Clear
2:53 AM 45.0 °F 43.5 °F 43.0 °F 93% 29.86 in 10.0 mi Variable 3.5 mph - N/A   Clear
3:53 AM 45.0 °F - 43.0 °F 93% 29.86 in 10.0 mi Calm Calm - N/A   Clear
4:53 AM 45.0 °F 42.6 °F 42.1 °F 90% 29.84 in 10.0 mi South 4.6 mph - N/A   Clear
5:53 AM 43.0 °F 38.8 °F 41.0 °F 93% 29.83 in 6.0 mi ENE 6.9 mph - N/A   Clear
6:53 AM 48.9 °F - 43.0 °F 80% 29.83 in 10.0 mi Calm Calm - N/A   Clear
7:53 AM 57.0 °F - 48.9 °F 74% 29.83 in 10.0 mi North 3.5 mph - N/A   Clear
8:53 AM 75.0 °F - 37.9 °F 26% 29.81 in 10.0 mi NNE 8.1 mph - N/A   Clear
9:53 AM 79.0 °F - 30.0 °F 17% 29.79 in 10.0 mi NE 6.9 mph 19.6 mph N/A   Clear
10:53 AM 81.0 °F - 36.0 °F 20% 29.76 in 10.0 mi NNW 9.2 mph - N/A   Clear
11:53 AM 75.0 °F - 37.0 °F 25% 29.74 in 10.0 mi NNW 19.6 mph - N/A   Clear
12:53 PM 75.0 °F - 41.0 °F 29% 29.71 in 10.0 mi NNW 15.0 mph - N/A   Clear
1:53 PM 77.0 °F - 39.0 °F 25% 29.67 in 10.0 mi NNW 18.4 mph - N/A   Clear
2:53 PM 73.0 °F - 39.9 °F 30% 29.64 in 10.0 mi NNW 21.9 mph - N/A   Clear
3:53 PM 71.1 °F - 43.0 °F 36% 29.60 in 10.0 mi NNW 16.1 mph 20.7 mph N/A   Clear
4:53 PM 75.0 °F - 42.1 °F 31% 29.58 in 10.0 mi NNW 9.2 mph - N/A   Clear
5:53 PM 87.1 °F - 28.9 °F 12% 29.56 in 10.0 mi NE 9.2 mph 21.9 mph N/A   Clear
6:53 PM 84.9 °F - 27.0 °F 12% 29.55 in 10.0 mi ENE 12.7 mph 17.3 mph N/A   Clear
7:53 PM 80.1 °F - 28.0 °F 15% 29.56 in 10.0 mi NE 9.2 mph - N/A   Clear
8:53 PM 78.1 °F - 28.0 °F 16% 29.58 in 10.0 mi NE 6.9 mph - N/A   Clear
9:53 PM 73.9 °F - 30.0 °F 20% 29.60 in 10.0 mi NE 6.9 mph - N/A   Clear
10:53 PM 73.9 °F - 30.9 °F 21% 29.59 in 10.0 mi NE 10.4 mph - N/A   Clear
11:53 PM 72.0 °F - 32.0 °F 23% 29.60 in 10.0 mi Variable 4.6 mph - N/A   Clear